[[{"header":{"parameterUnit":"m.s-1","parameterCategory":1,"la1":30.2992,"la2":30.254,"lo1":-89.0895,"lo2":-89.0443,"dy":0.0025,"dx":0.0025,"nx":19,"ny":19,"refTime":"2026-03-25T03:00:00:Z","depth":0,"parameterNumber":2,"parameterNumberName":"U-component_of_WINDS"},"data":[0,0,0,-1.4806,-1.4805,-1.4789,-1.4789,-1.4787,-1.4787,0,0,0,0,0,0,0,0,0,0,0,-1.4821,-1.4821,-1.4806,-1.4805,-1.4789,-1.4789,-1.4787,-1.4787,0,0,0,0,0,0,0,0,0,0,0,-1.4821,-1.4821,-1.4821,-1.4805,-1.4789,-1.4789,-1.4787,-1.4792,0,0,0,0,0,0,0,0,0,0,-1.4805,-1.4829,-1.4821,-1.4821,-1.4805,-1.479,-1.4789,-1.4792,-1.4792,-1.4802,0,-1.4813,0,-1.48,-1.4788,-1.4788,0,0,0,-1.4798,-1.4829,-1.4816,-1.4822,-1.4805,-1.479,-1.4794,-1.4792,-1.4792,-1.4801,-1.4812,-1.4812,-1.48,-1.4788,-1.4788,-1.487,-1.4871,0,0,-1.4798,-1.4823,-1.4816,-1.4816,-1.4819,-1.4795,-1.4794,-1.4791,-1.4805,-1.4812,-1.4811,-1.48,-1.4788,-1.4788,-1.4869,-1.487,0,0,0,-1.4806,-1.4824,-1.481,-1.4817,-1.4813,-1.4795,-1.4794,-1.4805,-1.4799,-1.4811,-1.48,-1.4788,-1.4788,-1.4869,-1.487,-1.4931,0,0,0,-1.4806,-1.4829,-1.4811,-1.4826,-1.4813,-1.4809,-1.4808,-1.4799,-1.4798,-1.48,-1.4788,-1.4788,-1.4868,-1.4869,-1.4928,-1.4956,0,0,0,-1.4818,-1.483,-1.4831,-1.4828,-1.4822,-1.4808,-1.4801,-1.4798,-1.4791,-1.4788,-1.4788,-1.4867,-1.4869,-1.4925,-1.4951,-1.4985,0,0,0,-1.4838,-1.4886,-1.4833,-1.4882,-1.4822,-1.4847,-1.4801,-1.4818,-1.4822,-1.4788,-1.4868,-1.487,-1.4924,-1.4947,-1.4982,-1.5018,-1.5036,0,0,-1.4912,-1.4895,-1.4923,-1.4875,-1.4915,-1.4847,-1.4897,-1.4877,-1.4853,-1.4866,-1.4868,-1.4929,-1.495,-1.4984,-1.5127,-1.5141,0,0,0,-1.4954,-1.4974,-1.498,-1.4985,-1.4972,-1.4963,-1.4934,-1.4927,-1.4937,-1.4865,-1.495,-1.4962,-1.4981,-1.4997,-1.5009,-1.5024,-1.4878,-1.4878,-1.4878,-1.5094,-1.5063,-1.5106,-1.5073,-1.508,-1.505,-1.5053,-1.5038,-1.5004,-1.5025,-1.5028,-1.5118,-1.5138,-1.5147,-1.5163,-1.5045,-1.5046,-1.5046,-1.5046,-1.5199,-1.5223,-1.5178,-1.5204,-1.5171,-1.5192,-1.5167,-1.5142,-1.5157,-1.5113,-1.5128,-1.5082,-1.5164,-1.5176,-1.505,-1.505,-1.5049,-1.5049,-1.5048,-1.5287,-1.5292,-1.5284,-1.5291,-1.53,-1.5266,-1.5283,-1.5253,-1.5224,-1.5239,-1.524,-1.5239,-1.5234,-1.5242,-1.5242,-1.5243,-1.5243,-1.5243,-1.5243,-1.538,-1.5369,-1.5387,-1.5379,-1.538,-1.5378,-1.535,-1.535,-1.5343,-1.5319,-1.5319,-1.5283,-1.5178,-1.5152,-1.5248,-1.5247,-1.5247,-1.5246,-1.5246,-1.5497,-1.5466,-1.5495,-1.5496,-1.5485,-1.5497,-1.5459,-1.5462,-1.5458,-1.5468,-1.543,-1.5358,-1.5338,-1.5328,-1.5306,-1.5437,-1.5437,-1.5437,-1.5437,-1.557,-1.5558,-1.5581,-1.5586,-1.5586,-1.5555,-1.559,-1.557,-1.5545,-1.5541,-1.5518,-1.5487,-1.5478,-1.5464,-1.5451,-1.543,-1.5589,-1.5589,-1.5589,-1.5641,-1.5628,-1.5662,-1.5638,-1.5628,-1.562,-1.5652,-1.5659,-1.5624,-1.5595,-1.5537,-1.5531,-1.548,-1.5465,-1.5433,-1.5414,-1.5375,0,0]},{"header":{"parameterUnit":"m.s-1","parameterCategory":1,"la1":30.2992,"la2":30.254,"lo1":-89.0895,"lo2":-89.0443,"dy":0.0025,"dx":0.0025,"nx":19,"ny":19,"refTime":"2026-03-25T03:00:00:Z","depth":0,"parameterNumber":3,"parameterNumberName":"V-component_of_WINDS"},"data":[0,0,0,3.0576,3.0576,3.0572,3.0573,3.0547,3.0546,0,0,0,0,0,0,0,0,0,0,0,3.0566,3.0565,3.0576,3.0576,3.0572,3.0573,3.0547,3.0546,0,0,0,0,0,0,0,0,0,0,0,3.0566,3.0565,3.0565,3.0576,3.0572,3.0573,3.0547,3.0557,0,0,0,0,0,0,0,0,0,0,3.0563,3.0543,3.0566,3.0565,3.0576,3.0572,3.0573,3.0557,3.0556,3.054,0,3.0524,0,3.0535,3.0543,3.0543,0,0,0,3.0584,3.0544,3.0554,3.0565,3.0576,3.0572,3.0576,3.0557,3.0555,3.0538,3.0524,3.0523,3.0534,3.0543,3.0543,3.0428,3.0427,0,0,3.0584,3.0559,3.0555,3.0552,3.0554,3.0576,3.0576,3.0556,3.0538,3.0523,3.0523,3.0534,3.0543,3.0542,3.0428,3.0427,0,0,0,3.0579,3.0558,3.0569,3.0553,3.0554,3.0576,3.0576,3.0539,3.0545,3.0523,3.0533,3.0543,3.0542,3.0429,3.0428,3.0359,0,0,0,3.058,3.0556,3.0569,3.0553,3.0554,3.0547,3.0559,3.0546,3.0545,3.0534,3.0542,3.0542,3.043,3.0429,3.0363,3.033,0,0,0,3.057,3.0555,3.0551,3.0552,3.055,3.0548,3.0553,3.0547,3.0551,3.0543,3.0541,3.0431,3.0429,3.0367,3.0336,3.0292,0,0,0,3.0552,3.0488,3.0549,3.0483,3.055,3.0506,3.0553,3.0522,3.0507,3.0542,3.043,3.0428,3.0368,3.034,3.0296,3.025,3.0229,0,0,3.0457,3.0476,3.0439,3.0493,3.0433,3.0509,3.0438,3.0447,3.0468,3.0439,3.0437,3.0362,3.0337,3.0293,3.0122,3.0105,0,0,0,3.04,3.0373,3.0363,3.0349,3.0356,3.0359,3.0383,3.0386,3.0363,3.0449,3.0336,3.0321,3.0297,3.0276,3.0262,3.0242,3.0418,3.0418,3.0418,3.0229,3.0262,3.0203,3.0236,3.0221,3.0247,3.0238,3.0247,3.0283,3.0255,3.0246,3.0139,3.0113,3.0103,3.0082,3.0226,3.0226,3.0225,3.0225,3.0093,3.006,3.0112,3.0073,3.0107,3.0074,3.0096,3.0123,3.0096,3.0148,3.0128,3.018,3.0083,3.0066,3.022,3.0221,3.0222,3.0222,3.0223,2.9984,2.9974,2.9981,2.9965,2.9949,2.9984,2.9957,2.9989,3.0019,2.9999,2.9993,2.9994,2.9999,2.9995,2.9994,2.9994,2.9994,2.9993,2.9993,2.9867,2.9878,2.9851,2.9855,2.9851,2.985,2.9876,2.9872,2.9876,2.9902,2.9902,2.9939,3.0069,3.01,2.9987,2.9988,2.9989,2.999,2.999,2.9714,2.9755,2.9714,2.971,2.9718,2.9699,2.9742,2.9732,2.9734,2.9719,2.9762,2.9853,2.9873,2.9885,2.991,2.9756,2.9756,2.9756,2.9756,2.9621,2.9636,2.9602,2.9594,2.959,2.9625,2.9577,2.9597,2.9623,2.9626,2.9654,2.9691,2.9702,2.9716,2.9731,2.9756,2.9565,2.9565,2.9565,2.9529,2.9545,2.9498,2.9527,2.9536,2.9542,2.9498,2.9485,2.9523,2.9558,2.9629,2.9637,2.9698,2.9716,2.975,2.9773,2.9819,0,0]}]]